DROR 1 (64784 NORAD) Tracking and Keplerian Element Data

This shows tracking and keplerian element data for the satellite.

Feedback or suggestion? Click here.




ElementValue
Catalog64784
NameDROR 1
Epoch Orbit150
Epoch Day354.15878257
Epoch Year2025
RAAN64.9533
Inclination0.0353
Eccentricity0.0002601
Argument of Perigee254.3145
Mean Anonmoly182.8812
Mean Motion1.00271793
Decay Rate-1E-07
L11 64784U 25148A 25354.15878257 -.00000010 00000+0 00000+0 0 9991
L22 64784 0.0353 64.9533 0002601 254.3145 182.8812 1.00271793 1501



Live tracking and technical data element details for DROR 1 (NORAD 64784). DROR 1 can be tracked NOW for your location showing map with azimuth and elevation plus other details from your city location.







IsCatalogInMostPopularTable: catalog: 64784, numindb: 11
Update: records affected: 1



GetName: 64784 DROR 1

Hit Count: updated at: Mon, 20 Apr 2026 10:43:54 GMT